Regional Weather Roundup
Issued by NWS Wakefield, VA

Home | Current Version | Previous Version | Graphics & Text | Print | Product List | Glossary On
Versions: 1 2 3 4 5 6 7 8 9 10 11 12 13 14 15 16 17 18 19 20 21 22 23 24 25 26 27 28 29 30 31 32 33 34 35 36 37 38 39 40 41 42 43 44 45 46 47 48 49 50
469
ASUS41 KAKQ 060815
RWRAKQ

REGIONAL WEATHER ROUNDUP
NATIONAL WEATHER SERVICE WAKEFIELD VA
300 AM EST SAT FEB 06 2016

Note: "fair" indicates few or no clouds below 12,000 feet with no
significant weather and/or obstructions to visibility. * = Denotes
station may not report precipitation (e.g., rain,snow,etc.),
thunder or fog.

VAZ042-051-052>054-056-060900-
NORTHERN VIRGINIA

CITY           SKY/WX    TMP DP  RH WIND       PRES   REMARKS
WASH NATIONAL  FAIR      31  21  66 SW5       30.43R
DULLES         MOCLDY    24  19  81 S3        30.41R
FORT BELVOIR   FAIR      24  21  87 CALM      30.42R
QUANTICO       FAIR      28  23  81 NW6       30.44R
FREDERICKSBRG* FAIR      25  22  88 CALM      30.43R
STAFFORD*      FAIR      21  20  93 CALM      30.46S
WARRENTON      FAIR      23  23  98 CALM      30.41S
CULPEPER*      FAIR      22  19  90 CALM      30.43R
MANASSAS*      FAIR      21  21 100 CALM      30.42S
LEESBURG*      FAIR      28  27  93 S3        30.41S
WINCHESTER     FAIR      27  19  74 CALM      30.38R
FRONT ROYAL*   FAIR      27  19  74 S6        30.38R
LURAY*         FAIR      25  19  80 CALM      30.38S
$$

VAZ048-049-060>072-079>083-060900-
CENTRAL AND SOUTH CENTRAL VIRGINIA

CITY           SKY/WX    TMP DP  RH WIND       PRES   REMARKS
RICHMOND       FAIR      26  23  88 CALM      30.42S
CHESTERFIELD*  FAIR      23   9  54 CALM      30.43S
PETERSBURG*    FAIR      24  23  93 CALM      30.43S
HANOVER        FAIR      24  21  88 CALM      30.44R
TAPPAHANNOCK*  FAIR      25  25  98 CALM      30.43R
QUINTON*       FAIR      25  23  92 CALM      30.42S
CHARLOTTSVILLE FAIR      27  18  69 CALM      30.40R
GORDONSVILLE*  FAIR      24  22  92 CALM      30.42R
ORANGE*        FAIR      25  23  93 CALM      30.43R
LOUISA*        FAIR      21  18  86 CALM      30.40R
BUMPASS*       FAIR      24  20  85 CALM      30.41R
FARMVILLE*     FAIR      24  24 100 CALM      30.40S
CREWE*         FAIR      24  24 100 CALM      30.41S
FORT PICKETT*  FAIR      27  22  84 CALM      30.41S
CHASE CITY*    FAIR      26  24  93 CALM      30.41R
CLARKSVILLE*   FAIR      27  25  93 CALM      30.41R
SOUTH HILL*    FAIR      24  21  89 CALM      30.47R
LAWRENCEVILLE* FAIR      27  25  94 CALM      30.41S
EMPORIA*       FAIR      25  23  93 CALM      30.44S
$$

VAZ088>098-060900-
SOUTHEAST VIRGINIA

CITY           SKY/WX    TMP DP  RH WIND       PRES   REMARKS
NORFOLK        FAIR      38  24  57 N8        30.41S
VIRGINIA BEACH FAIR      33  22  63 N3        30.40S
NORFOLK NAVAL  FAIR      36  24  62 NE8       30.42F
WEST POINT*    FAIR      23  22  95 CALM      30.44S
SALUDA*        FAIR      27  25  93 CALM      30.42S
NEWPORT NEWS   FAIR      28  24  85 CALM      30.42S
LANGLEY AFB    FAIR      30  23  75 NW3       30.41S
FORT EUSTIS    FAIR      29  22  74 CALM      30.40S
WILLIAMSBURG*  FAIR      28  27  93 CALM      30.43S
HR EXEC AP*    FAIR      25  21  86 CALM      30.44S
FRANKLIN*      FAIR      26  25  94 CALM      30.43S
US460-WAKEFLD  FAIR      26  23  88 CALM      30.42S
$$

VAZ020-022-025-037-045-060900-
WEST CENTRAL AND SOUTHWEST VIRGINIA

CITY           SKY/WX    TMP DP  RH WIND       PRES   REMARKS
STAUNTON*      FAIR      27  22  80 CALM      30.40R
WAYNESBORO*    FAIR      22  16  78 CALM      30.36S
HOT SPRINGS VA FAIR      23  13  67 CALM      30.24R
LYNCHBURG      FAIR      23  17  78 CALM      30.40R
DANVILLE       FAIR      26  21  81 CALM      30.41R
SOUTH BOSTON*  FAIR      25  24  96 CALM      30.41S
MARTINSVILLE   FAIR      19  17  89 CALM      30.42S
ROANOKE        FAIR      27  17  66 CALM      30.40S
BLACKSBURG     FAIR      22  17  83 CALM      30.37S
DUBLIN*        FAIR      25  19  77 CALM      30.35F
MARION*        FAIR      21  17  82 CALM      30.35S
HILLSVILLE*    FAIR      22  16  77 CALM      30.30S
RICHLANDS*     FAIR      26  10  50 CALM      30.31S
WISE*          FAIR      28   9  43 S3        30.31S
ABINGDON*      FAIR      26  16  66 CALM      30.35S
$$

MDZ021>025-VAZ099-100-060900-
SOUTHERN MARYLAND AND THE DELMARVA PENINSULA

CITY           SKY/WX    TMP DP  RH WIND       PRES   REMARKS
PATUXENT RIVER PTCLDY    27  20  75 NW6       30.42R
BAY BRIDGE APT   N/A     32  23  69 CALM      30.42S
LEONARDTOWN    PTCLDY    27  23  86 CALM      30.43S
DOVER          CLOUDY    31  22  69 W2        30.39R
GEORGETOWN     CLOUDY    29  24  82 CALM      30.41R
EASTON         PTCLDY    28  25  86 CALM      30.45R
CAMBRIDGE      CLOUDY    30  25  80 CALM      30.42R
SALISBURY      CLOUDY    27  25  92 CALM      30.41R
OCEAN CITY     CLOUDY    29  22  75 NW5       30.41R
WALLOPS ISLAND FAIR      29  23  78 NW7       30.42R
ACCOMACK*      FAIR      28  25  86 N3        30.41S
$$

NCZ012>017-030>032-060900-
NORTH CENTRAL AND EASTERN NORTH CAROLINA

CITY           SKY/WX    TMP DP  RH WIND       PRES   REMARKS
ROANOKE RAPIDS FAIR      28  27  93 CALM      30.42S
RALEIGH        CLOUDY    28  23  81 CALM      30.41R
ELIZABETH CITY CLEAR     29  25  85 NW6       30.42S
AHOSKIE*       CLOUDY    28  26  92 CALM      30.43S
EDENTON*       CLEAR     30  29  94 CALM      30.42F
CURRITUCK*     CLEAR     31  29  94 CALM      30.42R
KILL DEVIL HLS PTCLDY    38  27  64 CALM      30.39S
MANTEO         PTCLDY    36  29  74 N3        30.40S
CAPE HATTERAS  CLEAR     39  25  57 NE5       30.39F
TARBORO*       FAIR      28  28  97 CALM      30.44R
GOLDSBORO      CLEAR     30  30 100 CALM      30.40R
WASHINGTON     CLEAR     32  27  83 CALM      30.42R
GREENVILLE       N/A     28  28 100 CALM      30.42R FOG
NEW BERN       CLEAR     31  28  89 CALM      30.41F
WILMINGTON     CLEAR     32  30  92 CALM      30.40S
$$

VAZ048-060900-
ELSEWHERE

CITY           SKY/WX    TMP DP  RH WIND       PRES   REMARKS
HARRISBURG PA  CLOUDY    25  16  68 CALM      30.37S
BALTIMORE      CLOUDY    24  20  84 SW3       30.41R
ANNAPOLIS      CLOUDY    29  23  78 CALM      30.41S
ANDREWS AFB    FAIR      26  21  82 S2        30.40R
PHILADELPHIA   CLOUDY    29  20  69 W5        30.39S
HENDERSON NC   CLOUDY    28  25  86 CALM      30.41R
GREENSBORO     CLOUDY    29  18  63 CALM      30.38R
ROCKY MOUNT    FOG       28  26  92 CALM      30.43R VSB 3/4
$$

VAZ100-060900-
MARINE

STATION/POSITION TIME  TEMP    WIND        PRES    WAVE   SWELL
                       AIR SEA DIR/SP/G            HT/PER HT/PER
                 (UTC) (F)     (DEG/KT/KT) (MB)    (FT/S) (FT/S)
BRANDYWINE LGT   0700   35     350/ 11/ 12 1028.9R
CAPE MAY NJ      0700   35 42  360/  3/  6 1028.7R
LEWES DE         0700   36 42  340/ 11/ 13 1029.0R
15NM E FENWICK I 0750   38 45              1029.1R   6/ 8
OCEAN-CITY-INLET 0700   33 42  330/  3/  5 1028.6R
WACHAPREAGUE VA  0700   32 45  320/  2/  5 1029.6R
THOMAS POINT MD  0800   33 39  310/  5/  5 1030.8R
GOOSES REEF MD   0800   37 39  360/  8/ 10 1030.8R   1/ 2
COVE POINT MD    0700   36     360/  9/ 12 1030.3R
SOLOMONS ISLAND  0700   34 41  320/  3/  4   N/A
BISHOPS HEAD MD  0700   32 40  320/  5/  6 1028.8R
POTOMAC MD       0800   35 40  360/  6/  8 1029.2R   0
CAMBRIDGE MD     0700   36 40  320/  7/  9 1028.9R
LEWISETTA VA     0700   36 42   10/  5/  7 1029.6R
RAPPAHANNOCK LGT 0700           10/ 14/ 15 1029.8R
STINGRAY PT      0800   37 42  350/  8/  8 1030.1R   1/ 3
YORK RVR RNG VA  0700   37     320/  6/  8 1029.3R
YORKTOWN VA      0700   36 44  340/  6/  7 1029.8R
JAMESTOWN VA     0800   33 43  360/  2/  2   N/A     0
DOMINION TERM VA 0700   36      CALM  /  3 1030.0R
KIPTOPEKE VA     0700      43   30/  4/  4   N/A
CHES BAY BRIDGE  0700   39 42  360/ 12/ 16 1029.4R
CAPE HENRY VA    0700   38      20/ 12/ 14   N/A
CHESAPEAKE LGHT  0700   39      10/ 12/ 14 1030.1R
WILLOUBY STN VA  0700   38     360/  6/  8 1027.5S
CAPE HENRY BUOY  0758      46                N/A     4/ 9   2/11
1ST LANDING BUOY 0800      42                N/A     2/ 3
CAPE CHARLES BUO 0756      45                N/A     4/ 9   3/ 9
OFFSHORE WE BUOY 0751      49                N/A     5/ 8   5/ 8
64NM E OF VA BCH 0750   43 53   20/ 10/ 16 1028.6R   8/10   8/10
DUCK PIER NC     0700   41 45   10/  9/ 13 1028.9R
44100 DUCK FRF   0754      46                N/A     6/10   2/11
44056 DUCK FRF   0741      45                N/A     5/10   2/11
OREGON INLET NC  0700   37 46  340/  3/  5 1029.3R
HATTERAS NC      0700   42 54   20/ 11/ 16 1028.6S
DIAMOND SHLS NC  0750   45 73   10/ 14/ 19 1028.6F   7/10   7/10
$$




USA.gov is the U.S. government's official web portal to all federal, state and local government web resources and services.